Temp
-17 -17 -16 -15 -15 -14 -14 -14 -15 -15 -14 -13 -13 -12 -12 -12 -12 -12 -12 -12 -11 -11 -11 -12 -12 -12 -11 -11 -11 -11 -11 -10 -10 -10 -10 -9 -9 -9 -9 -8 -8 -8 -8 -8 -8
-17 -16 -16 -16 -15 -15 -14 -14 -14 -15 -14 -14 -14 -13 -11 -12 -12 -12 -12 -12 -12 -12 -11 -11 -12 -12 -11 -11 -11 -11 -11 -11 -10 -10 -10 -10 -9 -9 -9 -8 -8 -8 -8 -8 -8
-17 -17 -17 -16 -16 -16 -15 -15 -15 -15 -15 -14 -14 -14 -14 -12 -12 -13 -12 -13 -12 -12 -12 -11 -11 -12 -12 -11 -11 -11 -11 -11 -10 -10 -9 -10 -9 -9 -9 -9 -9 -8 -8 -8 -7
-18 -18 -17 -17 -17 -17 -16 -15 -15 -15 -16 -15 -15 -14 -13 -14 -13 -13 -13 -13 -13 -13 -12 -12 -12 -12 -11 -11 -11 -11 -11 -11 -10 -10 -9 -10 -10 -10 -9 -9 -9 -9 -8 -8 -8
-18 -18 -18 -18 -17 -17 -17 -16 -16 -16 -16 -16 -15 -15 -14 -14 -13 -13 -13 -13 -13 -13 -13 -13 -13 -12 -12 -12 -12 -12 -12 -12 -11 -10 -10 -10 -10 -10 -9 -9 -9 -9 -8 -8 -8
-19 -19 -18 -18 -18 -18 -17 -17 -17 -16 -16 -16 -16 -15 -15 -14 -14 -13 -13 -13 -13 -13 -13 -13 -13 -12 -13 -12 -12 -12 -12 -11 -11 -11 -10 -10 -10 -10 -10 -9 -9 -9 -9 -8 -8
-20 -19 -19 -18 -18 -18 -18 -18 -18 -17 -17 -17 -17 -16 -15 -15 -14 -14 -13 -12 -13 -13 -13 -13 -12 -13 -13 -13 -12 -12 -12 -12 -11 -11 -11 -11 -9 -10 -10 -10 -9 -8 -9 -9 -9
-20 -19 -19 -19 -18 -18 -18 -18 -18 -18 -18 -17 -17 -16 -16 -17 -15 -14 -14 -14 -13 -13 -13 -13 -13 -12 -12 -12 -12 -12 -12 -12 -12 -12 -12 -11 -10 -11 -11 -10 -9 -9 -9 -9 -9
-20 -20 -19 -19 -19 -18 -18 -18 -18 -17 -17 -18 -17 -17 -17 -16 -15 -16 -15 -14 -14 -14 -14 -13 -13 -12 -12 -12 -12 -12 -11 -11 -12 -12 -12 -11 -10 -11 -11 -10 -9 -9 -9 -9 -10
-21 -20 -20 -19 -19 -19 -19 -19 -18 -18 -17 -17 -17 -17 -16 -16 -16 -16 -16 -15 -15 -14 -15 -14 -13 -12 -12 -12 -11 -12 -12 -12 -12 -12 -12 -11 -10 -11 -11 -11 -10 -9 -9 -9 -10
-22 -21 -20 -20 -20 -19 -19 -19 -19 -19 -18 -17 -16 -16 -15 -16 -16 -16 -17 -16 -16 -15 -14 -14 -14 -12 -13 -13 -13 -12 -12 -12 -12 -12 -12 -11 -11 -11 -11 -10 -10 -10 -10 -9 -10
-23 -22 -21 -20 -20 -20 -19 -19 -19 -18 -18 -17 -17 -17 -16 -17 -17 -17 -17 -17 -17 -17 -17 -16 -13 -14 -14 -14 -13 -13 -12 -12 -12 -12 -12 -12 -11 -11 -10 -10 -10 -10 -10 -9 -10
-25 -23 -22 -21 -20 -20 -20 -20 -19 -19 -19 -18 -17 -17 -17 -17 -17 -17 -17 -17 -17 -17 -17 -17 -15 -15 -14 -14 -14 -13 -13 -13 -13 -13 -13 -12 -11 -11 -10 -10 -10 -10 -10 -10 -10
-25 -25 -23 -22 -20 -20 -20 -19 -20 -19 -19 -18 -18 -17 -17 -17 -17 -17 -18 -18 -18 -17 -17 -16 -15 -15 -15 -14 -14 -14 -14 -14 -14 -13 -13 -13 -10 -10 -10 -10 -10 -9 -10 -10 -10
-25 -25 -24 -22 -22 -21 -21 -20 -20 -21 -22 -20 -18 -18 -18 -18 -17 -18 -18 -18 -18 -18 -17 -15 -16 -16 -16 -16 -16 -15 -15 -15 -14 -14 -14 -12 -12 -8 -9 -10 -10 -11 -10 -10 -11
-26 -25 -25 -24 -23 -22 -21 -22 -22 -22 -21 -20 -18 -18 -18 -17 -17 -18 -18 -18 -18 -18 -18 -17 -17 -16 -16 -16 -17 -16 -16 -15 -15 -15 -14 -13 -13 -8 -9 -10 -11 -11 -11 -11 -11
-26 -26 -26 -25 -24 -23 -23 -22 -23 -24 -21 -19 -19 -18 -18 -18 -18 -18 -17 -17 -18 -17 -17 -17 -17 -17 -17 -17 -16 -17 -17 -16 -16 -15 -14 -14 -14 -9 -9 -10 -11 -11 -11 -11 -11
-26 -26 -26 -26 -25 -24 -23 -23 -24 -23 -22 -19 -19 -19 -18 -19 -18 -18 -18 -17 -17 -17 -17 -17 -17 -17 -17 -17 -16 -17 -17 -17 -16 -16 -16 -16 -12 -10 -11 -12 -12 -12 -12 -12 -12
-26 -27 -27 -27 -26 -24 -24 -24 -24 -23 -21 -20 -20 -20 -20 -19 -19 -19 -18 -17 -17 -17 -17 -17 -17 -17 -17 -17 -17 -17 -17 -17 -17 -17 -17 -16 -13 -12 -13 -13 -14 -13 -13 -13 -12
-26 -27 -27 -27 -27 -25 -24 -24 -23 -23 -22 -21 -21 -22 -21 -20 -20 -19 -19 -17 -17 -17 -17 -17 -17 -18 -18 -18 -18 -18 -18 -18 -17 -17 -17 -15 -15 -14 -14 -14 -14 -14 -14 -13 -13
-27 -27 -27 -27 -27 -27 -25 -25 -24 -23 -24 -23 -22 -22 -22 -22 -21 -21 -20 -18 -18 -18 -18 -18 -17 -17 -18 -17 -17 -18 -18 -18 -19 -18 -17 -16 -15 -14 -15 -14 -14 -15 -14 -14 -14
-26 -26 -26 -26 -26 -26 -26 -26 -25 -25 -25 -24 -23 -23 -23 -23 -23 -22 -21 -20 -20 -20 -20 -19 -19 -18 -18 -18 -19 -19 -19 -19 -19 -18 -18 -18 -14 -14 -14 -15 -15 -15 -15 -16 -15
-26 -26 -26 -26 -26 -26 -26 -26 -26 -25 -24 -25 -24 -24 -24 -23 -21 -22 -22 -22 -21 -20 -20 -20 -20 -20 -19 -18 -18 -18 -18 -19 -19 -20 -19 -19 -14 -15 -16 -16 -16 -16 -16 -16 -16
-26 -26 -26 -26 -26 -26 -26 -26 -26 -25 -24 -25 -24 -25 -25 -24 -23 -22 -22 -22 -22 -21 -21 -22 -21 -20 -19 -19 -20 -20 -20 -21 -21 -21 -19 -20 -15 -15 -16 -16 -16 -17 -17 -17 -17
-26 -26 -26 -26 -26 -26 -27 -26 -26 -26 -26 -26 -25 -25 -25 -24 -24 -23 -23 -21 -21 -22 -22 -22 -21 -21 -20 -20 -21 -20 -21 -21 -21 -20 -20 -19 -19 -15 -16 -17 -17 -18 -18 -18 -18
-26 -26 -26 -26 -26 -27 -27 -27 -27 -26 -26 -26 -26 -26 -26 -25 -24 -22 -22 -22 -22 -22 -22 -22 -22 -21 -21 -21 -21 -21 -22 -21 -21 -21 -21 -20 -20 -16 -18 -18 -17 -17 -18 -19 -19
-27 -26 -26 -27 -26 -26 -27 -27 -27 -27 -26 -26 -26 -26 -26 -24 -25 -23 -23 -23 -22 -22 -22 -23 -22 -22 -21 -21 -22 -22 -21 -21 -21 -21 -21 -21 -20 -20 -19 -19 -18 -19 -20 -20 -19
Height
5667 5675 5684 5692 5700 5708 5715 5722 5729 5735 5740 5749 5755 5768 5774 5781 5788 5793 5797 5804 5811 5815 5821 5825 5830 5835 5839 5844 5847 5849 5850 5852 5856 5860 5862 5862 5865 5866 5866 5867 5869 5869 5870 5872 5872
5654 5661 5671 5679 5688 5696 5704 5712 5719 5727 5733 5740 5747 5758 5766 5773 5781 5787 5791 5798 5804 5809 5815 5819 5826 5830 5834 5839 5843 5844 5846 5848 5854 5857 5859 5859 5860 5861 5863 5864 5867 5866 5867 5868 5869
5642 5650 5658 5668 5677 5685 5693 5701 5709 5717 5725 5732 5738 5748 5755 5764 5773 5780 5784 5791 5797 5803 5808 5813 5820 5825 5830 5833 5837 5839 5841 5844 5848 5851 5854 5857 5857 5857 5859 5861 5862 5863 5864 5865 5866
5629 5638 5647 5656 5666 5675 5683 5692 5700 5708 5715 5721 5729 5737 5745 5755 5764 5774 5778 5785 5790 5797 5802 5806 5812 5816 5823 5827 5830 5834 5835 5839 5844 5846 5849 5853 5853 5852 5855 5859 5858 5859 5860 5861 5862
5615 5626 5635 5645 5654 5664 5674 5682 5691 5699 5706 5712 5719 5727 5736 5746 5754 5764 5771 5778 5784 5789 5795 5800 5805 5809 5814 5820 5824 5828 5829 5834 5838 5841 5843 5848 5848 5849 5852 5854 5855 5856 5856 5857 5859
5603 5613 5623 5634 5644 5653 5663 5672 5681 5688 5695 5702 5709 5718 5725 5736 5743 5752 5763 5771 5776 5781 5788 5793 5798 5803 5808 5812 5817 5823 5823 5828 5832 5834 5835 5841 5842 5843 5850 5849 5849 5852 5853 5853 5854
5591 5602 5612 5623 5633 5643 5653 5662 5671 5679 5684 5692 5699 5707 5716 5724 5732 5743 5753 5762 5769 5774 5780 5785 5791 5796 5802 5807 5808 5815 5817 5818 5824 5827 5829 5832 5835 5841 5843 5843 5844 5846 5849 5849 5849
5580 5591 5601 5612 5623 5633 5643 5652 5660 5668 5676 5683 5690 5699 5709 5713 5721 5732 5742 5748 5758 5765 5772 5777 5781 5787 5793 5798 5801 5805 5808 5809 5816 5821 5825 5826 5830 5837 5836 5834 5839 5840 5842 5843 5844
5569 5580 5591 5602 5612 5623 5633 5641 5650 5658 5666 5672 5681 5690 5698 5708 5716 5723 5730 5738 5745 5754 5761 5768 5771 5777 5783 5788 5792 5796 5799 5803 5810 5813 5817 5818 5823 5831 5829 5828 5832 5834 5836 5838 5839
5558 5569 5581 5591 5603 5613 5623 5631 5640 5647 5654 5661 5670 5681 5691 5702 5706 5712 5718 5726 5735 5743 5751 5758 5762 5767 5772 5778 5783 5789 5795 5799 5802 5808 5806 5808 5810 5822 5824 5821 5824 5826 5831 5833 5832
5548 5559 5570 5582 5593 5603 5613 5621 5630 5637 5645 5657 5667 5672 5682 5690 5696 5703 5710 5717 5723 5731 5740 5748 5753 5760 5768 5772 5777 5779 5783 5789 5792 5796 5798 5800 5800 5807 5814 5812 5816 5820 5821 5823 5825
5539 5549 5560 5571 5582 5593 5604 5612 5622 5633 5640 5647 5655 5662 5670 5681 5687 5693 5700 5710 5714 5722 5727 5733 5743 5752 5756 5761 5765 5770 5773 5779 5784 5786 5787 5790 5792 5796 5803 5805 5807 5810 5810 5813 5817
5531 5540 5550 5560 5572 5585 5596 5606 5616 5623 5631 5638 5646 5654 5660 5672 5680 5687 5693 5699 5706 5711 5717 5723 5733 5738 5744 5750 5754 5760 5764 5769 5773 5775 5776 5776 5778 5786 5791 5795 5797 5799 5802 5804 5807
5524 5532 5542 5552 5568 5578 5590 5600 5608 5616 5621 5629 5637 5644 5652 5662 5671 5678 5685 5690 5695 5702 5708 5713 5723 5728 5733 5740 5744 5748 5755 5758 5759 5760 5763 5765 5761 5776 5783 5787 5788 5789 5794 5796 5798
5518 5525 5534 5548 5555 5569 5585 5591 5598 5605 5608 5614 5625 5633 5644 5654 5663 5670 5674 5680 5687 5693 5699 5709 5716 5718 5726 5734 5734 5739 5744 5746 5747 5746 5748 5754 5752 5762 5774 5778 5782 5781 5782 5784 5786
5513 5520 5528 5540 5549 5559 5570 5579 5588 5591 5591 5606 5618 5627 5636 5645 5651 5658 5665 5672 5677 5682 5690 5696 5702 5706 5716 5721 5725 5728 5732 5733 5732 5733 5733 5744 5746 5749 5759 5768 5772 5772 5771 5774 5776
5509 5516 5525 5530 5537 5548 5561 5570 5575 5575 5589 5601 5612 5621 5627 5635 5641 5651 5657 5664 5671 5677 5684 5689 5695 5701 5705 5710 5714 5716 5720 5720 5720 5722 5725 5733 5735 5744 5744 5752 5756 5759 5760 5761 5764
5507 5512 5518 5524 5533 5541 5552 5560 5563 5570 5584 5594 5605 5612 5618 5624 5633 5641 5647 5655 5663 5669 5674 5678 5683 5691 5697 5703 5707 5709 5709 5711 5714 5713 5717 5718 5719 5731 5731 5739 5744 5746 5747 5749 5750
5503 5509 5515 5521 5528 5535 5544 5548 5555 5568 5580 5588 5596 5602 5608 5615 5625 5630 5641 5649 5655 5662 5666 5670 5674 5680 5686 5689 5693 5696 5694 5704 5701 5701 5700 5703 5710 5715 5723 5725 5731 5733 5735 5737 5737
5502 5509 5514 5521 5525 5529 5534 5542 5554 5564 5572 5579 5586 5594 5601 5609 5613 5620 5629 5642 5647 5653 5655 5658 5663 5668 5673 5676 5678 5682 5690 5688 5685 5686 5687 5693 5698 5705 5714 5716 5715 5723 5722 5722 5722
5503 5508 5515 5520 5524 5528 5532 5539 5550 5557 5565 5570 5577 5587 5596 5599 5607 5612 5621 5632 5639 5646 5646 5649 5653 5659 5661 5665 5672 5674 5674 5676 5676 5677 5678 5680 5686 5696 5703 5704 5704 5702 5707 5709 5709
5500 5508 5514 5519 5525 5530 5535 5540 5546 5551 5557 5562 5569 5577 5586 5594 5599 5603 5612 5622 5628 5634 5637 5641 5642 5646 5654 5657 5660 5659 5662 5662 5662 5669 5666 5667 5670 5688 5690 5691 5688 5689 5688 5690 5691
5504 5509 5512 5517 5522 5527 5533 5538 5541 5546 5552 5557 5562 5568 5577 5586 5591 5594 5603 5612 5617 5623 5629 5632 5632 5635 5640 5644 5645 5647 5653 5655 5654 5653 5653 5657 5666 5685 5675 5674 5674 5675 5673 5674 5672
5504 5508 5511 5515 5518 5523 5528 5533 5536 5541 5545 5551 5557 5563 5569 5575 5582 5587 5596 5603 5607 5613 5617 5619 5621 5624 5629 5636 5637 5639 5642 5643 5643 5640 5646 5642 5656 5665 5664 5665 5664 5658 5659 5659 5656
5503 5507 5512 5515 5518 5520 5524 5528 5531 5535 5537 5542 5549 5559 5564 5568 5572 5582 5587 5594 5598 5604 5607 5610 5612 5617 5622 5623 5623 5626 5627 5632 5631 5635 5629 5639 5637 5653 5653 5649 5647 5647 5646 5642 5638
5500 5507 5509 5511 5512 5515 5519 5523 5527 5529 5533 5539 5546 5548 5549 5555 5569 5577 5579 5583 5589 5596 5597 5601 5602 5606 5608 5613 5614 5613 5615 5620 5622 5624 5621 5625 5622 5641 5638 5632 5632 5635 5630 5624 5623
5501 5503 5504 5506 5507 5510 5514 5518 5521 5525 5529 5534 5536 5538 5541 5553 5559 5563 5569 5574 5582 5585 5589 5592 5593 5597 5598 5601 5601 5599 5608 5610 5611 5612 5614 5608 5617 5621 5622 5624 5620 5613 5606 5607 5610
Wind_Speed
71 76 72 73 72 71 69 66 62 59 54 65 74 57 47 47 57 53 49 43 44 43 36 39 38 39 40 38 35 34 35 34 32 27 24 25 24 20 20 19 17 16 14 15 15
70 70 76 73 71 69 71 67 64 60 59 55 64 64 75 49 48 57 51 47 46 47 44 38 41 41 39 38 37 35 36 35 32 31 27 27 27 25 23 21 18 18 17 17 17
70 69 68 76 71 69 68 69 66 60 60 58 58 67 56 73 62 60 53 49 48 48 47 42 44 43 41 41 41 39 38 37 35 33 29 28 28 27 25 23 21 18 19 18 17
70 68 67 66 77 64 65 66 68 64 59 61 53 59 60 60 62 58 54 49 49 49 48 47 45 42 43 43 44 42 42 40 37 34 33 29 29 30 28 24 23 20 20 19 19
67 67 66 66 63 72 65 62 64 64 62 60 58 49 65 67 58 60 52 50 50 49 49 49 47 47 46 46 46 45 44 42 38 36 36 32 34 33 30 25 25 22 23 21 21
66 66 66 65 65 64 62 70 60 56 63 62 59 57 51 73 71 66 61 55 53 51 50 49 49 48 47 46 46 44 44 42 39 39 39 37 37 37 30 30 30 25 25 24 23
63 64 66 65 65 63 64 58 66 61 62 67 58 55 50 65 67 70 67 62 57 54 52 51 51 49 47 45 47 45 45 44 42 42 41 40 41 35 34 34 34 31 28 28 27
64 62 64 65 64 63 61 63 59 60 58 65 59 55 47 55 60 71 67 69 60 57 55 55 54 53 51 50 50 48 49 49 45 43 41 44 43 37 39 41 38 37 33 31 31
63 62 62 63 63 63 61 61 60 64 59 59 60 62 54 46 49 62 68 70 70 61 58 59 57 57 56 55 55 53 54 52 46 46 45 49 47 40 43 45 42 43 40 35 33
59 61 61 60 61 61 62 61 60 57 57 61 58 53 53 52 49 52 63 65 68 68 66 62 61 61 60 60 60 56 52 51 50 47 51 54 55 46 46 48 46 46 44 40 37
55 59 60 61 59 59 59 59 58 57 55 51 50 53 50 51 54 48 52 60 61 68 70 69 65 65 61 58 57 58 58 57 57 54 56 57 57 53 48 51 48 47 50 46 43
48 55 58 60 60 58 57 57 58 58 57 54 50 50 48 45 49 52 50 52 55 51 49 58 71 67 64 62 62 62 62 61 59 59 60 60 60 57 52 51 49 46 54 52 46
39 50 55 59 59 59 56 55 55 56 55 56 55 52 52 49 47 49 51 50 50 53 55 54 58 58 63 64 65 64 64 62 60 60 61 65 65 60 56 53 52 50 53 55 50
40 43 51 57 58 57 57 55 54 53 53 56 56 57 54 51 47 47 50 52 54 50 55 56 57 57 58 61 60 63 58 57 59 62 65 64 71 62 59 55 53 53 53 54 54
37 37 48 53 54 55 51 53 54 51 47 59 57 57 54 51 50 47 47 50 51 49 49 55 50 53 52 48 48 51 47 49 53 56 61 63 68 67 60 55 50 51 53 55 56
37 38 37 47 52 52 53 50 51 53 59 57 56 57 54 53 52 50 48 45 45 48 46 46 52 52 50 51 51 48 46 49 53 55 61 59 61 71 63 54 48 49 53 54 54
33 31 35 38 46 51 49 52 51 52 59 60 59 59 55 52 51 48 48 48 47 44 45 46 46 49 51 47 50 55 55 51 53 54 60 56 56 66 66 58 53 48 50 54 54
24 24 27 33 40 46 50 50 49 55 57 61 60 59 57 56 52 49 47 47 45 46 46 46 45 44 47 56 49 48 52 55 53 56 58 60 68 65 66 57 53 49 46 50 53
25 23 28 25 30 42 48 54 59 54 55 58 58 56 56 55 52 48 48 47 45 42 44 45 46 45 44 46 49 47 50 49 54 60 60 61 63 61 57 54 46 48 49 49 52
23 25 24 24 18 28 45 55 54 54 54 55 54 44 54 53 52 52 51 51 48 45 48 47 47 47 46 48 51 56 51 51 53 55 61 65 62 60 55 55 58 51 49 51 53
25 26 22 22 18 13 30 44 51 51 52 54 53 53 40 36 39 43 47 48 45 42 45 48 48 48 49 52 49 49 51 54 55 56 57 61 63 62 57 56 57 59 59 60 57
24 24 25 19 15 14 17 38 45 49 47 42 53 51 53 46 41 45 49 43 37 36 37 40 45 47 46 44 47 50 51 49 55 57 57 58 64 55 56 56 57 58 59 58 56
22 26 22 22 17 16 20 25 34 54 48 33 40 51 48 48 41 39 45 38 37 40 40 41 45 47 50 50 51 54 52 52 54 54 57 59 59 49 53 54 56 56 56 57 61
14 17 16 15 16 18 19 24 23 38 59 55 39 40 42 55 57 47 41 43 46 41 31 30 41 49 52 47 45 48 47 45 46 49 48 50 59 55 55 54 55 58 59 59 61
16 12 11 12 15 19 20 20 24 30 30 49 66 56 43 30 46 48 44 43 42 45 46 51 49 44 44 42 44 46 46 44 43 46 52 51 54 55 53 54 53 53 55 57 59
14 10 8 14 18 20 21 20 19 26 32 31 29 34 61 63 47 33 41 37 36 35 37 38 47 52 52 48 48 51 46 45 48 48 53 55 59 58 57 60 61 58 57 59 61
7 11 14 17 21 27 25 25 26 30 28 32 34 32 25 53 58 51 29 38 36 29 28 33 36 39 44 46 51 55 52 51 50 46 50 54 55 53 54 55 58 58 59 60 61
Wind_Direction
227 223 227 228 230 231 232 234 237 241 230 230 234 220 206 210 220 215 212 209 209 210 212 200 204 207 206 207 211 216 225 224 226 225 228 226 225 219 219 215 222 228 236 238 234
224 227 223 228 228 229 231 233 235 236 237 230 229 231 231 212 219 215 212 210 209 210 214 205 208 207 207 208 211 215 225 231 230 232 227 231 229 219 224 226 223 238 236 231 232
222 224 226 222 228 228 230 231 233 234 236 228 228 221 229 232 230 216 213 211 211 212 213 214 208 213 211 212 214 218 224 232 236 236 223 223 233 232 229 235 236 231 229 227 229
223 222 224 225 224 226 228 231 232 233 236 239 229 230 221 229 229 221 213 215 215 214 216 216 217 218 212 213 219 224 228 231 233 233 234 224 233 241 238 236 238 234 225 224 225
222 223 223 223 224 225 226 229 230 232 233 236 232 235 227 227 227 223 221 222 221 219 217 218 218 219 219 219 222 224 231 231 232 232 232 231 235 240 246 247 233 231 232 225 227
221 221 221 222 222 224 226 228 229 229 235 233 237 234 237 223 227 228 220 224 225 223 222 221 221 221 221 221 223 225 231 232 232 234 235 235 236 243 252 251 240 226 232 239 234
222 220 222 220 221 222 225 230 226 231 237 235 235 234 231 221 224 226 224 223 225 226 225 225 225 226 226 226 225 226 230 236 232 233 239 243 241 246 253 251 245 235 225 235 242
221 220 220 221 220 221 223 226 227 226 231 237 232 236 228 223 224 225 225 223 221 225 228 227 227 228 229 228 229 227 230 233 237 238 243 246 242 251 253 253 250 243 238 238 240
220 220 219 220 220 220 222 223 227 224 231 233 234 233 231 227 227 223 220 222 225 224 227 229 228 228 229 230 232 231 232 235 235 244 246 248 247 249 253 254 252 245 243 241 244
219 220 220 219 220 220 220 224 226 226 226 228 232 233 231 230 226 225 223 220 224 227 228 230 231 231 231 231 234 236 240 242 243 243 248 247 249 248 251 255 257 249 245 246 244
220 218 219 219 219 220 220 221 222 226 230 231 231 232 230 229 226 227 226 224 223 226 227 228 232 235 237 238 238 239 240 241 244 247 248 251 252 251 251 251 252 252 249 244 246
215 218 217 219 218 219 220 222 223 228 229 232 229 231 232 227 230 229 230 229 227 225 228 230 230 232 235 239 241 241 243 243 245 249 251 251 253 255 253 253 256 250 247 246 243
213 215 217 218 218 218 219 221 224 225 226 230 231 230 235 233 230 231 232 231 234 233 228 227 231 232 230 234 239 243 246 247 249 249 252 253 251 253 255 254 253 251 246 248 249
215 214 214 218 219 218 218 220 224 224 227 229 230 231 231 232 228 231 230 234 237 237 239 237 235 233 235 233 236 239 243 247 249 250 251 255 255 251 254 255 256 254 248 247 251
211 212 212 213 216 217 215 219 220 221 221 225 226 229 230 233 234 231 229 231 237 236 238 237 240 239 237 240 241 246 249 251 253 254 253 252 258 252 251 254 259 260 252 248 249
213 215 213 210 213 216 214 210 217 217 222 226 225 230 231 232 232 230 231 230 233 232 233 237 235 238 240 239 240 244 248 250 251 252 253 254 257 254 257 259 258 259 257 252 252
206 210 212 209 208 210 211 211 209 217 223 224 227 231 233 234 234 233 235 234 236 238 238 241 244 243 243 244 244 245 243 250 253 253 257 260 258 258 260 259 260 258 255 253 253
194 209 205 209 207 207 207 208 210 219 220 228 228 229 234 236 235 233 232 236 234 237 236 239 242 243 249 248 252 252 251 251 257 258 259 260 256 253 259 263 262 259 256 254 255
193 205 187 191 204 208 207 203 204 217 221 226 230 231 234 236 237 236 237 238 237 237 240 242 245 245 245 242 242 246 249 255 255 256 256 256 257 256 256 262 265 262 259 258 255
193 189 173 173 181 203 206 209 212 215 222 225 228 233 233 239 242 241 238 239 239 240 240 240 239 238 240 241 242 244 247 249 251 253 258 260 261 262 262 261 267 263 262 262 260
190 189 186 185 194 211 202 203 206 214 217 220 223 223 213 226 234 240 240 242 239 234 241 244 245 241 240 244 248 252 252 250 253 257 262 263 260 259 263 266 267 268 265 263 262
194 187 191 199 218 208 195 204 201 210 214 220 222 218 219 229 236 242 240 237 234 228 234 242 247 248 247 244 245 248 249 251 253 252 255 261 258 262 267 268 268 266 267 266 266
188 206 217 232 232 212 198 195 215 209 202 209 222 218 218 211 205 222 225 228 235 234 235 241 242 246 247 246 244 246 250 253 257 259 259 261 263 262 266 269 270 272 270 269 268
189 197 209 222 224 218 206 208 210 215 219 222 209 219 224 221 217 225 227 232 238 233 218 232 237 243 247 253 254 252 253 257 260 260 260 258 263 260 265 265 268 267 268 270 270
199 202 215 226 237 235 224 236 221 211 213 221 226 220 215 220 229 230 239 237 235 240 243 242 244 251 246 248 252 254 256 259 253 253 255 258 261 264 266 269 267 270 273 272 271
192 200 226 230 216 217 223 223 230 226 220 218 215 230 231 226 225 210 204 220 228 237 243 242 248 248 248 250 256 256 259 261 263 255 256 260 262 264 264 265 268 269 268 268 269
243 269 248 245 238 229 230 235 237 232 226 224 228 239 255 227 218 213 221 219 224 219 225 238 247 251 253 257 256 256 259 267 267 264 267 271 272 268 265 267 268 270 267 267 270